Vertical_Velocity
1 -1 -1 -4 -11 -2 -1 -10 -3 -4 -2 3 2 -6 -1 3 -1 -9 10 8 1 -4 -1 -1 5 -4 2 -0 -2 -2 -0 0 1 -2 -3 0 -1 -0 1 0 -0 -0 -0 -1 -2 0 -1 -1 -1
1 3 -2 -0 -5 0 -7 -7 -2 -3 -1 6 -1 -4 -5 -1 -1 -7 2 8 2 -4 -1 3 0 -4 -3 -1 -2 -1 -1 -1 -0 -1 -1 -1 -1 -1 -1 0 -1 1 1 -2 -5 -3 -5 -4 -3
8 3 -1 -2 -0 -3 -4 -1 -1 -0 1 -3 -1 -0 1 4 9 -2 6 -2 -1 -3 -2 2 -2 -3 -3 -2 -2 -2 -2 -3 -1 0 1 -1 1 -0 1 1 -1 0 -2 -2 -0 -1 2 -3 -2
4 1 3 -2 -3 -11 -4 -6 0 -1 7 -3 1 -0 0 -3 -10 -11 2 0 -1 1 1 -2 -4 -3 -2 -1 -0 -2 -2 -2 -3 -1 1 -1 0 1 -0 1 0 0 0 -1 -2 -0 -3 2 -2
-2 4 0 1 -5 -5 -3 -4 3 -0 -0 1 -2 -1 2 10 -1 -10 -10 0 -5 -0 1 -3 -4 -5 -1 -2 -1 -1 -2 -2 -3 -2 -2 -1 -1 -3 -1 -2 0 2 -3 2 -0 -0 -2 2 2
0 5 1 -0 -4 -5 -3 -5 7 1 1 4 1 -0 2 13 -1 3 -2 -8 1 -3 -1 -1 -2 -5 -2 -3 -3 -2 1 -1 -3 -3 -3 -1 -2 -2 -2 -1 -1 1 -1 -0 -2 -2 -4 -1 2
3 2 -3 -1 -4 -2 -7 4 2 -0 0 2 -3 -2 4 13 5 -2 -2 -5 -3 -0 -1 -1 -1 -3 -2 -1 -3 -4 -3 1 -2 -2 -3 -4 -2 -2 -0 1 -1 0 3 -2 -1 -0 -3 -2 -3
6 4 2 -3 -2 -17 -13 4 3 -1 -2 8 -6 -2 -1 9 3 6 5 0 1 0 1 -0 1 -2 -3 -2 -2 -2 -4 -2 -1 -1 -3 -2 -4 -4 -2 -1 0 1 6 2 -2 -4 -5 -1 -3
8 10 -0 -8 4 -20 -10 5 -4 1 1 1 6 6 -9 3 7 5 2 2 -3 2 -0 -0 1 -0 -1 -2 0 -0 -4 -3 -2 -0 3 0 -3 -3 -2 -2 -1 -2 1 -2 -1 -2 -5 -3 -3
6 6 -10 -4 -4 -5 -5 10 5 3 0 -1 3 14 12 5 6 -1 -3 -4 -2 -6 -3 -1 1 1 -1 -1 -2 -1 -2 -1 -3 -4 -1 4 0 -3 -2 -2 0 -1 -1 0 -3 2 -2 -3 -3
-10 -5 -3 -8 -4 3 -2 1 -0 1 -1 -6 -8 -2 -5 -4 -3 9 4 -10 -11 1 -4 -3 1 2 -1 -2 -2 -3 -0 -1 -2 -1 -2 1 3 1 -1 -1 -0 -1 -1 -3 -1 -3 0 -3 -5
18 -2 1 -15 -3 5 -0 -0 -3 7 -14 10 -4 5 -3 -2 -4 -11 7 1 -9 -8 -4 -5 -2 1 1 -3 -1 0 -1 0 -3 -2 -1 -5 1 0 -1 -1 0 -2 -1 -2 -1 -2 1 -2 -1
14 -6 0 -1 0 -7 9 -5 -5 -9 1 5 2 7 24 10 -1 -1 -10 15 -0 -1 -4 -8 -5 -4 -2 -7 -0 -2 -3 -1 3 -0 0 1 -2 1 1 -1 -1 -1 2 -1 -0 -0 -2 -1 1
-5 1 -7 -1 -8 1 15 -9 23 -19 0 -6 1 -2 3 6 -4 -1 2 1 27 0 -2 -1 -2 -0 1 -3 -6 -4 0 -3 -2 0 1 -3 -2 -0 -1 0 -1 -0 -1 2 0 -2 -1 -2 0
-2 11 0 -4 -10 -9 10 6 -5 -4 3 -1 -2 -3 -1 5 11 -1 -8 -11 -9 23 4 -2 -5 1 0 2 2 -7 -5 -1 -6 -0 0 -1 -2 -2 -2 -0 1 -0 0 0 -1 0 1 -2 -3
14 9 11 -35 3 -18 25 -26 -12 -4 3 -5 -4 -2 -4 -6 2 4 5 -1 -17 -5 24 7 0 -2 -0 -1 4 1 -11 2 1 -1 -0 3 1 2 -2 0 -0 2 1 -1 -2 -0 1 -0 -4
3 -5 5 -7 -1 -0 14 -13 -8 -4 3 -2 -3 -6 -7 -7 -0 -3 -4 3 -6 -11 6 12 -1 -4 -5 -3 1 4 -2 -7 3 -1 -0 -1 1 -0 -1 0 2 3 2 2 1 0 -0 0 -2
-6 5 -2 -2 -10 6 1 -10 -0 -1 4 -5 -1 -1 -1 -3 -22 -11 -8 -10 3 2 4 15 1 -3 4 7 6 8 7 2 -8 1 -1 5 -0 2 1 1 3 1 2 4 -1 2 0 1 -1
5 6 1 -6 -8 12 -6 -2 -5 -2 5 1 -1 -2 -2 1 -14 -8 -4 -4 15 10 22 16 4 5 3 2 1 3 -6 -2 3 -7 -3 5 1 1 -2 4 -1 1 1 3 4 0 2 2 1
3 3 -10 -7 -2 19 -2 -3 -4 0 -3 -3 -2 -1 -2 3 3 5 -1 8 15 3 9 7 0 9 5 6 5 6 -4 -4 5 4 -4 -2 -1 0 -1 1 2 -0 1 2 0 -0 -1 1 -1
-2 3 -3 1 -1 -1 -2 -4 -3 -4 -1 -4 2 -4 -3 0 2 9 12 13 3 2 -0 0 3 5 0 -3 3 5 10 4 2 1 2 -0 3 1 3 -1 3 1 0 1 -1 1 1 1 -2
8 -4 3 3 12 -0 -2 -5 -1 -2 -2 -0 -1 4 2 8 1 5 5 13 11 3 1 4 4 6 10 13 18 2 -9 -5 -5 -3 8 -2 -0 -0 0 -3 2 3 3 2 -1 1 -0 4 0
-26 4 2 2 2 -5 3 3 -13 1 -2 -4 -2 -3 -4 -2 9 7 3 4 -4 3 2 -2 -2 2 3 4 8 11 2 0 6 2 8 4 6 -3 2 4 -4 0 2 3 -1 -1 -1 -3 4
-8 13 3 -0 -3 0 -5 -3 -6 -2 -7 -3 -3 -5 -3 7 12 6 11 19 10 12 9 3 1 -7 -7 -7 2 5 5 8 6 2 -0 2 -3 0 2 5 1 -0 0 -0 1 2 3 -5 -2
16 11 4 -1 -1 -6 -1 5 -18 -2 -2 -5 -4 -2 1 9 -8 15 7 -2 -0 -2 -3 -2 -2 -2 -5 -2 -6 5 5 2 4 3 1 3 -0 -6 3 3 2 -0 2 0 0 -1 2 4 -1
-4 -6 -7 -2 -2 -2 -0 -3 -18 -7 -3 -2 2 3 9 4 5 3 2 -1 3 -2 -1 1 -2 -2 -2 -5 -1 -0 5 1 6 -0 1 -2 -1 -1 -2 3 1 2 1 1 -1 -0 1 -1 3
8 3 -6 -1 -1 -3 -4 -1 -8 1 -1 3 4 0 6 8 9 7 6 9 2 -1 1 -3 -5 -6 -5 -4 -6 -2 -1 2 5 1 9 -4 2 4 2 -3 2 0 3 -0 0 -1 0 -4 3
-19 -5 -10 -3 -2 0 -2 -0 -3 -2 5 2 0 3 9 6 5 0 3 2 5 1 -4 -9 -11 -9 -5 -6 -1 -3 -2 1 -2 5 5 -5 3 6 6 -2 -0 2 0 2 -2 5 1 -3 1
-2 2 0 -2 2 1 1 -3 4 3 0 1 4 6 -2 6 4 -3 -5 -1 -2 -2 -4 -6 -3 -2 -2 -3 -6 -3 -2 -1 0 2 5 1 0 1 3 3 -5 2 -3 0 -2 4 0 -2 2
5 -3 -1 -0 -6 -1 -6 -3 2 3 2 -2 5 5 -2 6 8 0 -8 -6 -4 -4 -6 0 -2 -1 -6 -5 -4 -1 -4 -0 -0 -2 -2 6 9 5 6 -1 -1 -1 1 -1 2 -1 2 -2 0
Height
1505 1507 1508 1510 1522 1517 1519 1494 1472 1466 1464 1456 1455 1459 1466 1466 1471 1493 1482 1485 1487 1491 1495 1496 1499 1501 1503 1504 1506 1509 1512 1514 1516 1519 1522 1525 1527 1530 1532 1534 1535 1537 1538 1540 1542 1544 1545 1547 1548
1504 1506 1507 1508 1522 1530 1518 1476 1482 1468 1461 1456 1454 1457 1463 1474 1472 1479 1482 1485 1487 1491 1494 1495 1498 1500 1502 1504 1506 1508 1511 1514 1516 1519 1522 1524 1527 1530 1533 1534 1536 1538 1539 1540 1542 1544 1545 1547 1548
1503 1503 1505 1509 1515 1520 1509 1473 1473 1466 1458 1457 1459 1460 1465 1472 1474 1477 1481 1484 1487 1490 1493 1495 1497 1499 1501 1503 1505 1508 1511 1513 1516 1519 1521 1524 1527 1530 1533 1535 1537 1538 1540 1541 1543 1545 1546 1547 1548
1504 1506 1503 1506 1508 1494 1486 1468 1470 1470 1459 1458 1460 1464 1468 1468 1471 1475 1481 1483 1486 1489 1491 1494 1497 1499 1501 1503 1505 1507 1511 1513 1516 1519 1521 1523 1526 1529 1532 1535 1537 1538 1540 1543 1544 1545 1546 1548 1548
1504 1503 1506 1505 1495 1479 1472 1466 1467 1467 1460 1458 1459 1464 1466 1468 1469 1472 1479 1483 1485 1488 1491 1493 1496 1499 1501 1503 1505 1507 1510 1512 1515 1518 1521 1523 1526 1530 1532 1535 1537 1539 1541 1543 1545 1545 1546 1548 1549
1501 1497 1507 1503 1488 1475 1467 1459 1460 1461 1457 1457 1459 1463 1469 1469 1466 1471 1474 1480 1485 1487 1490 1493 1495 1498 1500 1502 1505 1507 1509 1512 1514 1517 1520 1522 1526 1529 1532 1534 1536 1539 1540 1542 1544 1545 1546 1548 1548
1497 1497 1497 1494 1488 1476 1464 1458 1458 1451 1451 1456 1455 1462 1470 1470 1469 1471 1473 1478 1483 1487 1489 1492 1494 1497 1500 1502 1504 1506 1509 1511 1514 1516 1518 1521 1524 1527 1530 1532 1535 1538 1541 1542 1543 1544 1545 1546 1547
1493 1492 1487 1483 1484 1476 1459 1457 1458 1451 1452 1454 1456 1461 1465 1468 1469 1470 1472 1476 1481 1485 1488 1491 1493 1496 1498 1500 1502 1504 1507 1510 1513 1515 1516 1519 1521 1525 1527 1530 1533 1536 1540 1540 1542 1543 1544 1545 1546
1490 1491 1474 1478 1478 1469 1460 1456 1457 1452 1450 1452 1455 1456 1458 1464 1468 1470 1473 1475 1479 1483 1487 1489 1491 1494 1496 1498 1501 1503 1505 1508 1511 1513 1514 1516 1519 1522 1524 1527 1530 1533 1536 1538 1540 1541 1542 1544 1545
1483 1478 1460 1467 1463 1461 1457 1453 1452 1455 1450 1450 1452 1455 1457 1463 1466 1468 1470 1473 1475 1479 1483 1486 1489 1491 1493 1496 1498 1501 1503 1505 1508 1510 1513 1514 1516 1519 1521 1524 1526 1530 1533 1535 1537 1539 1540 1542 1543
1474 1453 1467 1461 1462 1460 1456 1451 1448 1453 1452 1446 1448 1449 1453 1459 1464 1468 1468 1469 1472 1475 1479 1482 1485 1487 1490 1491 1495 1498 1500 1502 1505 1507 1510 1512 1513 1515 1517 1520 1523 1526 1529 1531 1533 1536 1537 1539 1541
1470 1451 1462 1459 1460 1456 1449 1449 1443 1445 1446 1444 1444 1445 1446 1448 1455 1461 1466 1467 1470 1472 1474 1478 1481 1484 1486 1488 1491 1494 1497 1499 1501 1503 1506 1508 1510 1512 1513 1515 1519 1521 1524 1527 1529 1532 1535 1536 1538
1458 1458 1456 1455 1454 1447 1446 1441 1441 1434 1441 1442 1441 1444 1443 1444 1448 1452 1460 1464 1465 1467 1470 1472 1476 1478 1482 1485 1487 1490 1493 1496 1498 1500 1502 1504 1507 1509 1511 1513 1515 1518 1520 1522 1525 1529 1531 1533 1535
1454 1450 1447 1448 1438 1438 1440 1434 1439 1425 1435 1437 1437 1439 1443 1442 1445 1449 1453 1458 1461 1462 1464 1467 1470 1472 1476 1479 1482 1485 1487 1492 1494 1496 1498 1500 1503 1505 1507 1510 1512 1515 1517 1520 1521 1524 1527 1530 1532
1448 1448 1441 1431 1421 1428 1438 1432 1420 1426 1430 1430 1432 1435 1438 1444 1444 1445 1448 1451 1455 1458 1459 1461 1465 1468 1471 1474 1477 1480 1483 1487 1490 1492 1495 1497 1499 1500 1503 1506 1508 1510 1513 1516 1518 1520 1523 1526 1529
1452 1448 1435 1395 1420 1424 1432 1425 1407 1422 1426 1424 1426 1430 1432 1435 1439 1441 1444 1445 1449 1452 1454 1456 1460 1464 1468 1471 1473 1476 1479 1483 1486 1488 1491 1493 1495 1497 1500 1502 1505 1507 1509 1511 1514 1517 1519 1521 1524
1441 1434 1412 1402 1415 1420 1422 1412 1407 1416 1419 1419 1421 1424 1427 1429 1431 1434 1438 1441 1443 1446 1449 1449 1453 1458 1462 1466 1470 1472 1474 1478 1481 1484 1487 1490 1492 1494 1495 1498 1501 1504 1506 1507 1510 1513 1515 1517 1520
1421 1429 1428 1419 1409 1415 1413 1407 1407 1407 1412 1413 1416 1418 1419 1421 1422 1426 1430 1435 1439 1441 1444 1445 1446 1451 1455 1459 1464 1467 1470 1473 1476 1479 1481 1485 1487 1490 1492 1494 1497 1501 1503 1504 1505 1508 1511 1513 1516
1433 1429 1420 1411 1405 1406 1402 1399 1401 1403 1408 1406 1407 1410 1411 1412 1416 1419 1423 1428 1433 1436 1439 1439 1440 1444 1449 1454 1458 1462 1463 1467 1472 1475 1477 1478 1481 1484 1487 1490 1492 1494 1497 1499 1500 1503 1506 1508 1511
1430 1428 1419 1405 1400 1399 1395 1400 1393 1397 1400 1396 1400 1402 1403 1406 1409 1410 1416 1420 1426 1430 1433 1434 1439 1444 1448 1452 1455 1457 1461 1463 1465 1470 1471 1472 1475 1478 1481 1485 1486 1489 1491 1494 1495 1497 1500 1503 1506
1417 1420 1419 1412 1407 1402 1404 1402 1399 1389 1392 1392 1391 1395 1398 1400 1404 1407 1411 1412 1419 1424 1429 1434 1438 1443 1447 1451 1453 1454 1457 1458 1460 1462 1464 1467 1470 1473 1475 1476 1480 1483 1485 1488 1490 1492 1494 1497 1499
1408 1412 1410 1405 1409 1416 1407 1421 1399 1392 1391 1390 1389 1391 1394 1396 1400 1404 1407 1410 1413 1419 1424 1429 1433 1438 1442 1447 1449 1448 1449 1451 1453 1456 1458 1461 1465 1466 1470 1471 1474 1477 1479 1482 1485 1487 1489 1492 1493
1396 1401 1404 1396 1404 1415 1416 1427 1405 1392 1392 1388 1387 1389 1391 1394 1397 1399 1405 1409 1417 1421 1423 1426 1429 1431 1435 1439 1443 1445 1445 1446 1448 1451 1454 1457 1460 1461 1462 1464 1467 1470 1473 1477 1480 1482 1483 1486 1488
1387 1398 1404 1393 1404 1425 1413 1418 1404 1395 1385 1384 1383 1384 1387 1392 1397 1402 1409 1413 1416 1418 1419 1420 1425 1429 1434 1436 1439 1440 1442 1443 1443 1445 1447 1450 1453 1455 1456 1458 1459 1464 1467 1470 1474 1476 1478 1481 1483
1383 1397 1410 1417 1419 1422 1396 1410 1391 1379 1375 1378 1379 1382 1385 1388 1400 1404 1408 1414 1416 1419 1423 1425 1427 1429 1431 1435 1435 1437 1437 1438 1437 1439 1440 1442 1444 1446 1448 1451 1453 1456 1461 1464 1468 1471 1473 1474 1476
1378 1388 1411 1415 1416 1412 1393 1402 1385 1370 1369 1373 1375 1384 1386 1389 1397 1404 1409 1412 1414 1420 1424 1426 1427 1428 1429 1431 1431 1431 1431 1430 1430 1432 1434 1435 1436 1439 1442 1445 1448 1452 1456 1459 1462 1465 1467 1470 1471
1375 1387 1383 1392 1388 1401 1393 1382 1370 1363 1372 1373 1371 1380 1391 1395 1399 1405 1409 1411 1413 1419 1420 1422 1423 1426 1427 1426 1424 1422 1422 1424 1423 1425 1428 1430 1430 1432 1435 1438 1442 1446 1450 1454 1456 1459 1461 1464 1467
1368 1374 1397 1398 1405 1403 1393 1384 1382 1376 1376 1386 1387 1392 1401 1400 1402 1408 1411 1412 1415 1417 1419 1421 1424 1424 1422 1420 1416 1412 1411 1413 1415 1418 1420 1422 1423 1425 1428 1432 1436 1439 1443 1448 1451 1453 1456 1459 1461
1380 1383 1387 1406 1396 1400 1405 1403 1383 1382 1377 1391 1395 1401 1416 1413 1411 1411 1416 1418 1419 1422 1422 1423 1422 1420 1416 1413 1408 1404 1403 1402 1405 1409 1413 1415 1417 1419 1422 1426 1430 1433 1436 1441 1446 1447 1451 1453 1456
1382 1385 1385 1402 1400 1389 1397 1411 1395 1392 1397 1393 1401 1408 1420 1419 1414 1417 1421 1423 1423 1423 1423 1420 1418 1414 1409 1407 1401 1397 1396 1395 1398 1401 1405 1408 1411 1413 1416 1420 1424 1428 1431 1436 1439 1442 1445 1448 1451